Location: Newark
(25.4297°S, 49.2719°W)
Time: 16:19:06
(UTC+00:00)

Tiros 1 - Pass Details

Date: 18 November 2019
Orbit: 630 x 664 km, 48.4° (Epoch: 11 December)

Event Time Altitude Azimuth Distance (km) Brightness Sun altitude
Exits shadow 05:56:18 20° 208° (SSW) 1,556 9.2 -28.5°
Drops below altitude 10° 05:59:31 10° 167° (SSE) 2,099 10.4 -28.0°
Sets 06:02:29 0° 149° (SSE) 3,013 11.7 -27.5°
